Weather in Sharkan

Russia / Udmurt Republic     57°18′04″N   53°52′16″E
temp.,
°C
wind,
m/s
gust,
m/s
humid.,
%
clouds,
%
prec.,
mm/h
press.,
hPa
HPBL,
m
17 april, sat
sat1701:00+1ne410675 0.0 1029207
04:000nne38705 0.0 1029161
07:00+2nne49625 0.0 1029286
10:00+7ne56465 0.0 1029871
13:00+9nne44425 0.0 10271254
16:00+10n34425 0.0 10261451
19:00+8nnw22575 0.0 102539
22:00+5nw33685 0.0 102549
18 april, sun
sun1801:00+3nw36775 0.0 102497
04:00+2nnw35851 0.0 102588
07:00+4n410794 0.0 1025438
10:00+4ne686372 0.0 10271032
13:00+6ne78385 0.0 10281542
16:00+6ne78365 0.0 10291632
19:00+4ne6104686 0.0 1030532
22:00+1ene510625 0.0 1032284
19 april, mon
mon1901:00−1ene410602 0.0 1033308
04:00−2ene49580 0.0 1035307
07:000e59450 0.0 1036505
10:00+3e78300 0.0 10361534
13:00+5e67280 0.0 10361683
16:00+5e67270 0.0 10351642
19:00+3e36400 0.0 1036145
22:000e36480 0.0 103793
20 april, tue
tue2001:00−1e23470 0.0 103745
04:00−1e12470 0.0 103812
07:00+1ese22400 0.0 1038169
10:00+5se23280 0.0 1037888
13:00+7ese22260 0.0 10361171
16:00+8ese22260 0.0 10341125
19:00+6e22390 0.0 103313
22:00+3se11450 0.0 103410
21 april, wed
wed2101:00+1s11500 0.0 103410
04:00+1se11500 0.0 103410
07:00+3se24450 0.0 1034162
10:00+8sse46335 0.0 1033778
13:00+11sse572981 0.0 10311190
16:00+13sse672834 0.0 10301452
19:00+9sse364325 0.0 103097
22:00+5sse3115293 0.0 1031194